When you browse on this site, cookies collect data to enhance your experience and personalize the content and advertising you see.
Visit our Privacy Policy to learn more. By continuing to use the site, you agree to this use of cookies and data.
  • En España
  • Lista de países
  • Para 7 días
  • Temperatura del agua
  • El tiempo en el mapa
  • Informadores
  • user-avatar
    Iniciar sesión

    Tiempo cada hora Bilbao

    Hoy, 29 Enero, Miércoles

    Tiempo Temperatura Precipitaciones Viento Presión Humedad
    00:00 +8°C° 0 mm 2 mps 756 mmHg 86%
    01:00 +10°C° 0 mm 1 mps 756 mmHg 85%
    02:00 +10°C° 0 mm 1 mps 755 mmHg 85%
    03:00 +10°C° 0 mm 1 mps 755 mmHg 85%
    04:00 +11°C° 0.1 mm 1 mps 755 mmHg 86%
    05:00 +11°C° 0.1 mm 1 mps 756 mmHg 87%
    06:00 +11°C° 0.1 mm 1 mps 756 mmHg 88%
    07:00 +12°C° 0.2 mm 1 mps 756 mmHg 89%
    08:00 +12°C° 0.2 mm 1 mps 756 mmHg 90%
    09:00 +12°C° 0.2 mm 2 mps 756 mmHg 91%
    10:00 +13°C° 0.1 mm 2 mps 756 mmHg 86%
    11:00 +14°C° 0.1 mm 2 mps 756 mmHg 82%
    12:00 +14°C° 0.1 mm 3 mps 756 mmHg 78%
    13:00 +14°C° 0.1 mm 3 mps 755 mmHg 76%
    14:00 +14°C° 0.1 mm 4 mps 755 mmHg 74%
    15:00 +14°C° 0.1 mm 4 mps 754 mmHg 72%
    16:00 +14°C° 0.2 mm 4 mps 754 mmHg 73%
    17:00 +14°C° 0.2 mm 4 mps 754 mmHg 75%
    18:00 +14°C° 0.2 mm 4 mps 754 mmHg 77%
    19:00 +14°C° 0.3 mm 4 mps 754 mmHg 79%
    20:00 +14°C° 0.3 mm 4 mps 754 mmHg 80%
    21:00 +14°C° 0.3 mm 4 mps 754 mmHg 82%
    22:00 +14°C° 0 mm 4 mps 754 mmHg 80%
    23:00 +14°C° 0 mm 4 mps 754 mmHg 78%

    Mañana, 30 Enero, Jueves

    Tiempo Temperatura Precipitaciones Viento Presión Humedad
    00:00 +14°C° 0 mm 5 mps 754 mmHg 77%
    01:00 +14°C° 0 mm 5 mps 754 mmHg 76%
    02:00 +14°C° 0 mm 5 mps 754 mmHg 76%
    03:00 +14°C° 0 mm 5 mps 754 mmHg 75%
    04:00 +14°C° 0.1 mm 5 mps 754 mmHg 74%
    05:00 +13°C° 0.1 mm 5 mps 754 mmHg 74%
    06:00 +13°C° 0.1 mm 5 mps 754 mmHg 73%
    07:00 +13°C° 0.1 mm 5 mps 754 mmHg 74%
    08:00 +13°C° 0.1 mm 5 mps 754 mmHg 74%
    09:00 +13°C° 0.1 mm 5 mps 754 mmHg 75%
    10:00 +13°C° 0.1 mm 5 mps 755 mmHg 73%
    11:00 +14°C° 0.1 mm 5 mps 755 mmHg 71%
    12:00 +14°C° 0.1 mm 4 mps 755 mmHg 70%
    13:00 +15°C° 0.1 mm 4 mps 754 mmHg 69%
    14:00 +15°C° 0.1 mm 4 mps 754 mmHg 69%
    15:00 +15°C° 0.1 mm 4 mps 754 mmHg 69%
    16:00 +14°C° 0.1 mm 4 mps 754 mmHg 72%
    17:00 +14°C° 0.1 mm 3 mps 754 mmHg 74%
    18:00 +14°C° 0.1 mm 3 mps 755 mmHg 77%
    19:00 +13°C° 0 mm 3 mps 755 mmHg 78%
    20:00 +13°C° 0 mm 3 mps 755 mmHg 80%
    21:00 +14°C° 0 mm 2 mps 755 mmHg 81%
    22:00 +14°C° 0 mm 2 mps 755 mmHg 82%
    23:00 +13°C° 0 mm 2 mps 756 mmHg 84%

    Pasado mañana, 31 Enero, Viernes

    Tiempo Temperatura Precipitaciones Viento Presión Humedad
    00:00 +13°C° 0 mm 2 mps 756 mmHg 85%
    01:00 +13°C° 0 mm 2 mps 756 mmHg 85%
    02:00 +13°C° 0 mm 2 mps 756 mmHg 85%
    03:00 +13°C° 0 mm 3 mps 756 mmHg 85%
    04:00 +13°C° 0 mm 2 mps 756 mmHg 86%
    05:00 +13°C° 0 mm 2 mps 755 mmHg 87%
    06:00 +13°C° 0 mm 2 mps 755 mmHg 88%
    07:00 +13°C° 0 mm 2 mps 755 mmHg 86%
    08:00 +13°C° 0 mm 3 mps 756 mmHg 84%
    09:00 +13°C° 0 mm 3 mps 756 mmHg 82%
    10:00 +16°C° 0 mm 3 mps 755 mmHg 76%
    11:00 +17°C° 0 mm 3 mps 755 mmHg 69%
    12:00 +19°C° 0 mm 3 mps 755 mmHg 63%
    13:00 +19°C° 0 mm 3 mps 755 mmHg 63%
    14:00 +19°C° 0 mm 3 mps 754 mmHg 63%
    15:00 +20°C° 0 mm 3 mps 754 mmHg 63%
    16:00 +19°C° 0 mm 3 mps 753 mmHg 67%
    17:00 +18°C° 0 mm 3 mps 753 mmHg 71%
    18:00 +17°C° 0 mm 3 mps 753 mmHg 75%
    19:00 +17°C° 0.1 mm 3 mps 753 mmHg 78%
    20:00 +17°C° 0.1 mm 3 mps 754 mmHg 81%
    21:00 +17°C° 0.1 mm 3 mps 754 mmHg 84%
    22:00 +16°C° 0 mm 2 mps 754 mmHg 84%
    23:00 +16°C° 0 mm 2 mps 754 mmHg 85%

    1 Febrero, Sábado

    Tiempo Temperatura Precipitaciones Viento Presión Humedad
    00:00 +15°C° 0 mm 2 mps 754 mmHg 86%
    01:00 +15°C° 0 mm 2 mps 755 mmHg 86%
    02:00 +15°C° 0 mm 2 mps 755 mmHg 86%
    03:00 +13°C° 0 mm 3 mps 755 mmHg 86%
    04:00 +13°C° 0 mm 3 mps 755 mmHg 86%
    05:00 +13°C° 0 mm 3 mps 755 mmHg 86%
    06:00 +13°C° 0 mm 3 mps 755 mmHg 86%
    07:00 +14°C° 0.1 mm 2 mps 756 mmHg 86%
    08:00 +15°C° 0.1 mm 2 mps 757 mmHg 85%
    09:00 +15°C° 0.1 mm 2 mps 757 mmHg 84%
    10:00 +16°C° 0.1 mm 2 mps 758 mmHg 79%
    11:00 +19°C° 0.1 mm 1 mps 758 mmHg 75%
    12:00 +20°C° 0.1 mm 1 mps 758 mmHg 70%
    13:00 +20°C° 0 mm 1 mps 758 mmHg 72%
    14:00 +20°C° 0 mm 1 mps 758 mmHg 73%
    15:00 +19°C° 0 mm 1 mps 758 mmHg 75%
    16:00 +18°C° 0 mm 1 mps 758 mmHg 80%
    17:00 +16°C° 0 mm 1 mps 758 mmHg 86%
    18:00 +15°C° 0 mm 1 mps 758 mmHg 91%
    19:00 +15°C° 0 mm 2 mps 759 mmHg 90%
    20:00 +14°C° 0 mm 2 mps 759 mmHg 89%
    21:00 +14°C° 0 mm 2 mps 759 mmHg 88%
    22:00 +13°C° 0 mm 3 mps 759 mmHg 87%
    23:00 +13°C° 0 mm 3 mps 759 mmHg 86%

    2 Febrero, Domingo

    Tiempo Temperatura Precipitaciones Viento Presión Humedad
    00:00 +13°C° 0 mm 3 mps 759 mmHg 85%
    01:00 +14°C° 0 mm 3 mps 759 mmHg 85%
    02:00 +14°C° 0 mm 3 mps 758 mmHg 84%
    03:00 +14°C° 0 mm 3 mps 758 mmHg 84%
    04:00 +14°C° 0 mm 3 mps 758 mmHg 84%
    05:00 +14°C° 0 mm 3 mps 758 mmHg 84%
    06:00 +14°C° 0 mm 3 mps 758 mmHg 84%
    07:00 +14°C° 0 mm 3 mps 758 mmHg 81%
    08:00 +16°C° 0 mm 3 mps 759 mmHg 78%
    09:00 +17°C° 0 mm 3 mps 759 mmHg 76%
    10:00 +18°C° 0 mm 3 mps 759 mmHg 70%
    11:00 +20°C° 0 mm 3 mps 759 mmHg 64%
    12:00 +21°C° 0 mm 3 mps 759 mmHg 58%
    13:00 +22°C° 0 mm 3 mps 758 mmHg 55%
    14:00 +22°C° 0 mm 4 mps 758 mmHg 53%
    15:00 +23°C° 0 mm 4 mps 758 mmHg 51%
    16:00 +21°C° 0 mm 4 mps 758 mmHg 56%
    17:00 +20°C° 0 mm 3 mps 758 mmHg 60%
    18:00 +18°C° 0 mm 3 mps 758 mmHg 65%
    19:00 +18°C° 0 mm 3 mps 759 mmHg 66%
    20:00 +18°C° 0 mm 3 mps 759 mmHg 67%
    21:00 +17°C° 0 mm 4 mps 759 mmHg 68%
    22:00 +17°C° 0 mm 4 mps 759 mmHg 68%
    23:00 +17°C° 0 mm 4 mps 759 mmHg 69%

    3 Febrero, Lunes

    Tiempo Temperatura Precipitaciones Viento Presión Humedad
    00:00 +17°C° 0 mm 4 mps 759 mmHg 69%
    01:00 +15°C° 0 mm 4 mps 759 mmHg 69%
    02:00 +15°C° 0 mm 4 mps 758 mmHg 69%
    03:00 +15°C° 0 mm 4 mps 758 mmHg 69%
    04:00 +15°C° 0 mm 4 mps 758 mmHg 69%
    05:00 +15°C° 0 mm 4 mps 758 mmHg 70%
    06:00 +14°C° 0 mm 5 mps 758 mmHg 70%
    07:00 +15°C° 0 mm 4 mps 758 mmHg 67%
    08:00 +15°C° 0 mm 4 mps 759 mmHg 64%
    09:00 +17°C° 0 mm 4 mps 759 mmHg 61%
    10:00 +19°C° 0 mm 3 mps 759 mmHg 55%
    11:00 +20°C° 0 mm 3 mps 759 mmHg 49%
    12:00 +22°C° 0 mm 3 mps 759 mmHg 43%
    13:00 +22°C° 0 mm 3 mps 759 mmHg 43%
    14:00 +23°C° 0 mm 2 mps 758 mmHg 43%
    15:00 +23°C° 0 mm 2 mps 758 mmHg 42%
    16:00 +20°C° 0 mm 2 mps 759 mmHg 50%
    17:00 +17°C° 0 mm 2 mps 759 mmHg 58%
    18:00 +15°C° 0 mm 1 mps 759 mmHg 65%
    19:00 +14°C° 0 mm 1 mps 760 mmHg 72%
    20:00 +13°C° 0 mm 1 mps 760 mmHg 79%
    21:00 +12°C° 0 mm 1 mps 760 mmHg 85%
    22:00 +12°C° 0 mm 1 mps 761 mmHg 88%
    23:00 +12°C° 0 mm 2 mps 761 mmHg 90%
    Mostrar más